Weather History for Washington, NC

Change the Weather History Date:

Thursday, March 28, 2013

  Actual Average (KEWN) Record (KEWN)
Temperature  
Mean Temperature 46 °F 57 °F  
Max Temperature 58 °F 69 °F 84 °F (1961)
Min Temperature 33 °F 45 °F 28 °F (1966)
Degree Days  
Heating Degree Days 20 9  
Month to date heating degree days 345  
Since 1 July heating degree days 2491  
Cooling Degree Days 0 1  
Month to date cooling degree days 2  
Year to date cooling degree days 5  
Moisture  
Dew Point 16 °F    
Average Humidity 39    
Maximum Humidity 73    
Minimum Humidity 7    
Precipitation  
Precipitation 0.00 in 0.13 in 1.61 in (2005)
Month to date precipitation 3.98  
Year to date precipitation 11.66  
Snow  
Snow 0.00 in - - ()
Month to date snowfall  
Since 1 July snowfall  
Snow Depth -    
Sea Level Pressure  
Sea Level Pressure 30.19 in    
Wind  
Wind Speed 4 mph (NW)    
Max Wind Speed 13 mph    
Max Gust Speed 22 mph    
Visibility 10 miles    
Events      
T = Trace of Precipitation, MM = Missing Value Source: NWS Daily Summary

Daily Weather History Graph

Daily Weather History Graph

Search for Another Location

Airport:

Trip Planner

Search our weather history database for the weather conditions in past years. The results will help you decide how hot, cold, wet, or windy it might be!

Date:

Astronomy

Mar. 28, 2013 Rise Set
Actual Time 7:00 AM EDT 7:26 PM EDT
Civil Twilight 6:34 AM EDT 7:52 PM EDT
Nautical Twilight 6:04 AM EDT 8:22 PM EDT
Astronomical Twilight 5:34 AM EDT 8:53 PM EDT
Moon 9:11 PM EDT (3/28) 7:30 AM EDT (3/28)
Length of Visible Light 13h 17m
Length of Day
12h 26m
Full, 98% of the Moon is Illuminated
Mar 28
Full
Apr 3
Last Quarter
Apr 10
New
Apr 18
First Quarter
Apr 25
Full

Hourly Weather History & Observations

Time (EDT) Temp. Windchill Dew Point Humidity Pressure Visibility Wind Dir Wind Speed Gust Speed Precip Events Conditions
12:15 AM 40.6 °F - 17.6 °F 39% 30.19 in 10.0 mi Calm Calm - N/A   Clear
12:35 AM 40.1 °F - 18.0 °F 41% 30.19 in 10.0 mi Calm Calm - N/A   Clear
12:55 AM 40.1 °F 38.0 °F 19.6 °F 44% 30.19 in 10.0 mi West 3.5 mph - N/A   Clear
1:15 AM 40.1 °F - 19.6 °F 44% 30.19 in 10.0 mi Calm Calm - N/A   Clear
1:35 AM 38.8 °F 36.5 °F 19.9 °F 47% 30.19 in 10.0 mi WNW 3.5 mph - N/A   Clear
1:55 AM 38.5 °F - 20.1 °F 48% 30.19 in 10.0 mi Calm Calm - N/A   Clear
2:15 AM 37.6 °F - 19.9 °F 49% 30.19 in 10.0 mi Calm Calm - N/A   Clear
2:35 AM 37.6 °F - 20.3 °F 50% 30.19 in 10.0 mi Calm Calm - N/A   Clear
2:55 AM 37.6 °F - 20.8 °F 51% 30.19 in 10.0 mi Calm Calm - N/A   Clear
3:15 AM 37.6 °F 33.1 °F 21.0 °F 51% 30.18 in 10.0 mi WNW 5.8 mph - N/A   Clear
3:35 AM 37.6 °F 35.1 °F 22.5 °F 54% 30.18 in 10.0 mi WNW 3.5 mph - N/A   Clear
3:55 AM 37.6 °F 35.1 °F 23.0 °F 56% 30.18 in 10.0 mi NW 3.5 mph - N/A   Clear
4:15 AM 37.6 °F 35.1 °F 23.7 °F 57% 30.18 in 10.0 mi WNW 3.5 mph - N/A   Clear
4:35 AM 37.6 °F 35.1 °F 24.6 °F 60% 30.18 in 10.0 mi WNW 3.5 mph - N/A   Clear
4:55 AM 36.3 °F 33.7 °F 25.3 °F 64% 30.18 in 10.0 mi WNW 3.5 mph - N/A   Clear
5:15 AM 35.1 °F 32.2 °F 24.6 °F 66% 30.18 in 10.0 mi WNW 3.5 mph - N/A   Clear
5:35 AM 35.1 °F - 25.2 °F 67% 30.18 in 10.0 mi Calm Calm - N/A   Clear
5:55 AM 34.5 °F - 25.2 °F 69% 30.18 in 10.0 mi Calm Calm - N/A   Clear
6:15 AM 33.8 °F - 24.6 °F 69% 30.18 in 10.0 mi Calm Calm - N/A   Clear
6:35 AM 33.8 °F 30.8 °F 24.8 °F 70% 30.18 in 10.0 mi WNW 3.5 mph - N/A   Clear
6:55 AM 33.8 °F 30.8 °F 24.8 °F 70% 30.19 in 10.0 mi WNW 3.5 mph - N/A   Clear
7:15 AM 33.8 °F 30.8 °F 25.2 °F 71% 30.19 in 10.0 mi NW 3.5 mph - N/A   Clear
7:35 AM 33.1 °F - 25.2 °F 73% 30.20 in 10.0 mi Calm Calm - N/A   Clear
7:55 AM 35.1 °F 31.0 °F 26.4 °F 71% 30.20 in 10.0 mi WNW 4.6 mph - N/A   Clear
8:15 AM 37.6 °F 33.1 °F 27.9 °F 68% 30.21 in 10.0 mi WNW 5.8 mph - N/A   Clear
8:35 AM 37.6 °F 32.3 °F 26.8 °F 65% 30.21 in 10.0 mi WNW 6.9 mph - N/A   Clear
8:55 AM 40.1 °F 35.3 °F 27.9 °F 62% 30.21 in 10.0 mi NW 6.9 mph - N/A   Clear
9:15 AM 41.0 °F 34.7 °F 26.4 °F 56% 30.21 in 10.0 mi NW 10.4 mph 16.1 mph N/A   Clear
9:35 AM 42.8 °F 38.6 °F 25.3 °F 50% 30.21 in 10.0 mi NNW 6.9 mph - N/A   Clear
10:15 AM 45.1 °F 40.8 °F 22.1 °F 40% 30.21 in 10.0 mi NW 8.1 mph 17.3 mph N/A   Clear
10:35 AM 46.6 °F - 21.4 °F 37% 30.21 in 10.0 mi NW 8.1 mph - N/A   Clear
10:55 AM 48.4 °F - 18.3 °F 30% 30.21 in 10.0 mi NNW 11.5 mph 16.1 mph N/A   Clear
11:15 AM 48.9 °F - 16.9 °F 28% 30.20 in 10.0 mi NW 10.4 mph - N/A   Clear
11:35 AM 50.2 °F - 17.1 °F 27% 30.20 in 10.0 mi WNW 9.2 mph - N/A   Clear
11:55 AM 52.5 °F - 15.4 °F 23% 30.20 in 10.0 mi WNW 8.1 mph - N/A   Clear
12:15 PM 52.7 °F - 13.6 °F 21% 30.19 in 10.0 mi NW 9.2 mph - N/A   Scattered Clouds
12:35 PM 52.7 °F - 10.2 °F 18% 30.19 in 10.0 mi NW 9.2 mph - N/A   Scattered Clouds
12:55 PM 52.7 °F - 5.9 °F 15% 30.18 in 10.0 mi West 11.5 mph 18.4 mph N/A   Scattered Clouds
1:15 PM 52.7 °F - -1.5 °F 11% 30.17 in 10.0 mi NW 6.9 mph 21.9 mph N/A   Scattered Clouds
1:35 PM 52.7 °F - 1.4 °F 12% 30.17 in 10.0 mi WNW 10.4 mph - N/A   Scattered Clouds
1:55 PM 52.7 °F - 4.5 °F 14% 30.17 in 10.0 mi NNW 11.5 mph 18.4 mph N/A   Scattered Clouds
2:15 PM 53.1 °F - 4.6 °F 14% 30.16 in 10.0 mi West 5.8 mph 16.1 mph N/A   Scattered Clouds
2:35 PM 54.5 °F - 2.8 °F 12% 30.16 in 10.0 mi NW 10.4 mph 17.3 mph N/A   Scattered Clouds
2:55 PM 55.0 °F - 1.6 °F 11% 30.16 in 10.0 mi NNW 8.1 mph - N/A   Scattered Clouds
3:15 PM 52.7 °F - 3.9 °F 14% 30.15 in 10.0 mi WNW 9.2 mph - N/A   Mostly Cloudy
3:35 PM 53.1 °F - -1.3 °F 11% 30.15 in 10.0 mi WNW 9.2 mph - N/A   Mostly Cloudy
3:55 PM 56.7 °F - -1.1 °F 10% 30.14 in 10.0 mi NNW 8.1 mph - N/A   Mostly Cloudy
4:15 PM 55.0 °F - -0.2 °F 11% 30.14 in 10.0 mi WNW 11.5 mph 16.1 mph N/A   Mostly Cloudy
4:35 PM 56.8 °F - -4.5 °F 8% 30.13 in 10.0 mi WNW 12.7 mph 17.3 mph N/A   Mostly Cloudy
4:55 PM 58.1 °F - -6.3 °F 7% 30.14 in 10.0 mi West 9.2 mph - N/A   Mostly Cloudy
5:15 PM 58.1 °F - -6.2 °F 7% 30.14 in 10.0 mi WNW 9.2 mph - N/A   Scattered Clouds
5:35 PM 57.2 °F - -4.7 °F 8% 30.14 in 10.0 mi NNW 10.4 mph - N/A   Scattered Clouds
6:15 PM 58.1 °F - -3.5 °F 8% 30.15 in 10.0 mi NW 9.2 mph - N/A   Scattered Clouds
6:35 PM 55.4 °F - -2.4 °F 9% 30.15 in 10.0 mi WNW 5.8 mph - N/A   Scattered Clouds
6:55 PM 54.0 °F - -2.2 °F 10% 30.16 in 10.0 mi NW 6.9 mph - N/A   Mostly Cloudy
7:15 PM 52.7 °F - 4.5 °F 14% 30.16 in 10.0 mi NNW 5.8 mph - N/A   Scattered Clouds
7:35 PM 52.7 °F - 7.5 °F 16% 30.18 in 10.0 mi NNW 5.8 mph - N/A   Scattered Clouds
7:55 PM 52.7 °F - 12.6 °F 20% 30.18 in 10.0 mi Calm Calm - N/A   Scattered Clouds
8:15 PM 47.8 °F - 17.6 °F 30% 30.19 in 10.0 mi Calm Calm - N/A   Clear
8:35 PM 47.7 °F - 17.6 °F 30% 30.20 in 10.0 mi North 3.5 mph - N/A   Clear
8:55 PM 45.1 °F - 21.6 °F 39% 30.21 in 10.0 mi Calm Calm - N/A   Clear
9:15 PM 43.3 °F - 23.0 °F 45% 30.21 in 10.0 mi Calm Calm - N/A   Clear
9:35 PM 43.9 °F - 23.5 °F 45% 30.22 in 10.0 mi Calm Calm - N/A   Clear
9:55 PM 42.8 °F - 25.9 °F 51% 30.23 in 10.0 mi Calm Calm - N/A   Clear
10:15 PM 42.6 °F - 26.2 °F 52% 30.24 in 10.0 mi Calm Calm - N/A   Scattered Clouds
10:35 PM 42.6 °F - 28.9 °F 58% 30.24 in 10.0 mi Calm Calm - N/A   Mostly Cloudy
10:55 PM 40.5 °F - 28.9 °F 64% 30.25 in 10.0 mi Calm Calm - N/A   Scattered Clouds
11:15 PM 40.3 °F 38.2 °F 27.5 °F 60% 30.26 in 10.0 mi NNW 3.5 mph - N/A   Scattered Clouds
11:35 PM 41.9 °F 40.0 °F 26.2 °F 54% 30.26 in 10.0 mi NNW 3.5 mph - N/A   Scattered Clouds